ROMMA est une association bénévole à but non lucratif. Votre soutien est indispensable : ADHERER à ROMMA ou FAIRE un DON

Nice - (06, Alpes-Maritimes)

Côte-d'Azur (190 m)   Longitude: 07° 14' E   Latitude: 43° 43' N Station partenaire n°136
 

Détail journalier du     <<     >>

Température Precipitation Humidité Pression Vent Dir Rafale Dir. rafale Ensol.
Heure (°C) (mm) (%) (hPa) (km/h) (km/h) (min)
01:00 15.207910184NNE15N0
02:00 15.107710173N16N0
03:00 14.807610173NNE13NNE0
04:00 15.308610164N16NNE0
05:00 15.208610161---50
06:00 14.607610163O6O0
07:00 14.608310163NNO11NNE0
08:00 14.707610163NNO11N0
09:00 16.206910172N8N20
10:00 17.407710171NNO8NNO0
11:00 18.308310172SE10SSE10
12:00 18.608210173SE11SSE0
13:00 18.408410165SE11SE0
14:00 18.308410165SE13SSE20
15:00 18.008610154SE11SSE0
16:00 17.608810152SE8SE0
17:00 17.0090101503SE0
18:00 16.4092101500---0
19:00 16.1092101500---0
20:00 15.7093101500---0
21:00 15.8094101500---0
22:00 15.709310151---5NE0
23:00 15.409310161NNE6N0
minuit 15.6093101605NNE0

Graphique du 28-10-2019

 

Serveur OMMA